Home > Time Zones > World Clock > Weather > U.S.A. > Adak > Past weeks

Flag for U.S.A. Weather past 2 weeks in Adak, Alaska, U.S.A.

Now
37 °F

Mostly cloudy.


Feels Like: 26 °F
Forecast: 37 / 43 °F
Wind: 26 mph from Southeast

Location: Adak


UV Index: 0 (Low)

Visibility: 2 mi


Pressure: 29.33 "Hg

Humidity: 87%

Dew point: 34 °F

Location of AdakLocation

Historic Weather in Adak

°F

Adak temperature yesterday

Maximum temperature yesterday: 43 °F (at 2:56 PM)
Minimum temperature yesterday: 34 °F (at 12:16 AM)
Average temperature yesterday: 37 °F

Past Weeks' High & Low Weather Summary

 TemperatureHumidityPressure
High45 °F (Apr 8, 2:36 PM)93% (Apr 7, 8:56 AM)30.03 "Hg (Apr 7, 8:56 AM)
Low27 °F (Apr 6, 6:16 AM)52% (Apr 5, 5:36 PM)29.12 "Hg (Apr 14, 2:16 PM)
Average37 °F78%29.52 "Hg
* Reported Apr 5 2:16 PM — Apr 20 2:56 PM, Adak, Weather by CustomWeather, © 2014

Note: Actual official high and low records may vary slightly from our data, if they occured in-between our weather recording intervals... More about our weather records

Advertising

Historic Weather Conditions — Data for Previous 24 hours

 ConditionsComfort  
Time TempWeatherWind HumidityBarometerVisibility
2:56 PM
Apr 20
37 °FMostly cloudy.28 mph81%29.38 "Hg3 mi
2:36 PM37 °FMostly cloudy.35 mph81%29.39 "Hg3 mi
2:16 PM37 °FMostly cloudy.32 mph81%29.41 "Hg3 mi
1:56 PM37 °FOvercast.30 mph81%29.44 "Hg2 mi
1:36 PM37 °FOvercast.30 mph81%29.46 "Hg3 mi
1:16 PM37 °FOvercast.26 mph81%29.49 "Hg3 mi
12:56 PM37 °FMostly cloudy.26 mph81%29.51 "Hg4 mi
12:16 PM37 °FMostly cloudy.26 mph81%29.56 "Hg4 mi
11:56 AM37 °FMostly cloudy.25 mph75%29.58 "Hg4 mi
11:36 AM37 °FMostly cloudy.22 mph75%29.61 "Hg6 mi
11:16 AM37 °FMostly cloudy.21 mph75%29.62 "Hg7 mi
10:56 AM37 °FMore clouds than sun.20 mph75%29.64 "Hg10 mi
10:36 AM37 °FMore clouds than sun.25 mph75%29.65 "Hg10 mi
10:16 AM39 °FMore clouds than sun.21 mph70%29.67 "Hg10 mi
9:56 AM39 °FMostly cloudy.20 mph65%29.68 "Hg10 mi
9:36 AM37 °FMostly cloudy.21 mph70%29.71 "Hg10 mi
9:16 AM37 °FMostly cloudy.23 mph70%29.72 "Hg10 mi
8:56 AM37 °FOvercast.15 mph75%29.73 "Hg10 mi
8:36 AM37 °FMostly cloudy.14 mph75%29.74 "Hg10 mi
8:16 AM37 °FMostly cloudy.14 mph70%29.76 "Hg10 mi
7:56 AM37 °FMostly cloudy.16 mph70%29.77 "Hg10 mi
7:36 AM37 °FOvercast.15 mph70%29.79 "Hg10 mi
7:16 AM37 °FOvercast.21 mph70%29.81 "Hg10 mi
6:56 AM37 °FPassing clouds.18 mph70%29.81 "Hg10 mi
6:36 AM37 °FMostly cloudy.15 mph70%29.83 "Hg10 mi
6:16 AM37 °FMostly cloudy.13 mph75%29.84 "Hg10 mi
5:56 AM36 °FPassing clouds.12 mph81%29.85 "Hg10 mi
5:36 AM36 °FPartly cloudy.8 mph81%29.86 "Hg10 mi
4:56 AM34 °FPassing clouds.No wind81%29.88 "Hg10 mi
4:36 AM34 °FOvercast.No wind81%29.89 "Hg10 mi
4:16 AM34 °FMostly cloudy.No wind87%29.90 "Hg10 mi
3:56 AM32 °FOvercast.No wind87%29.91 "Hg10 mi
3:36 AM32 °FOvercast.No wind87%29.92 "Hg10 mi
3:16 AM30 °FOvercast.No wind93%29.93 "Hg10 mi
2:56 AM30 °FMostly cloudy.5 mph86%29.93 "Hg10 mi
2:36 AM28 °FPassing clouds.No wind93%29.94 "Hg10 mi
2:16 AM28 °FClear.No wind93%29.94 "Hg10 mi
1:56 AM28 °FClear.No wind86%29.94 "Hg10 mi
1:36 AM28 °FClear.No wind93%29.95 "Hg10 mi
1:16 AM30 °FClear.3 mph93%29.96 "Hg10 mi
12:56 AM30 °FClear.No wind86%29.97 "Hg10 mi
12:36 AM34 °FPassing clouds.No wind81%29.97 "Hg10 mi
12:16 AM36 °FPartly cloudy.No wind81%29.97 "Hg10 mi
11:56 PM
Apr 19
36 °FMostly cloudy.3 mph81%29.98 "Hg10 mi
11:36 PM36 °FOvercast.6 mph81%29.99 "Hg10 mi
11:16 PM36 °FOvercast.3 mph75%29.99 "Hg10 mi
10:56 PM34 °FPassing clouds.No wind75%29.99 "Hg10 mi
10:36 PM34 °FPartly sunny.No wind75%29.99 "Hg10 mi
10:16 PM34 °FOvercast.No wind75%29.98 "Hg10 mi
9:56 PM36 °FPartly sunny.No wind70%29.98 "Hg10 mi
9:36 PM36 °FPartly sunny.No wind70%29.98 "Hg10 mi
9:16 PM36 °FPassing clouds.3 mph70%29.97 "Hg10 mi
8:56 PM37 °FSunny.5 mph65%29.97 "Hg10 mi
8:36 PM39 °FSunny.6 mph65%29.97 "Hg10 mi
7:56 PM39 °FSunny.8 mph61%29.97 "Hg10 mi
7:36 PM39 °FSunny.8 mph65%29.97 "Hg10 mi
7:16 PM41 °FSunny.9 mph57%29.97 "Hg10 mi
6:56 PM43 °FPassing clouds.13 mph53%29.96 "Hg10 mi
6:36 PM41 °FSunny.12 mph57%29.96 "Hg10 mi
6:16 PM43 °FSunny.12 mph53%29.96 "Hg10 mi
5:56 PM43 °FSunny.15 mph53%29.96 "Hg10 mi
5:36 PM43 °FSunny.14 mph53%29.96 "Hg10 mi
5:16 PM43 °FPassing clouds.15 mph57%29.96 "Hg10 mi
4:56 PM41 °FPassing clouds.16 mph61%29.96 "Hg10 mi
4:36 PM43 °FScattered clouds.15 mph57%29.96 "Hg10 mi
4:16 PM41 °FScattered clouds.12 mph61%29.97 "Hg10 mi
Weather by CustomWeather, © 2014

See weather overview